User: anonymous   Login
Location: Banios
(43.0451°N, 0.2335°E)
Time: 15:51:30
(UTC+00:00)
Language:

USA 215 - Orbit

View from above orbital plane
View from above orbital plane
View from above satellite
View from above satellite

Ground track
Ground track

The orbit data is extracted from the following two-line orbital elements,

1 37162U 10046A   21108.85505084 0.00000000  00000-0  00000-0 0    00
2 37162 122.9990 205.2589 0001999  55.4319 304.5681 13.41429616    03
Epoch (UTC): 18 April 2021 20:31:16
Eccentricity: 0.0001999
inclination: 122.9990°
perigee height: 1102 km
apogee height: 1105 km
right ascension of ascending node: 205.2589°
argument of perigee: 55.4319°
revolutions per day: 13.41429616
mean anomaly at epoch: 304.5681°
orbit number at epoch: 0

The dashed part of the orbit path shows where the satellite is in the earth's shadow,  

DLR